This demonstration page uses our WeatherBlox Daily Observations layout. Learn more.

Left ArrowRight Arrow

47.50024, -111.30081

Hourly Observations for October 25, 2019

Temp ( °F °C ) Dew Point ( °F °C ) Humidity (%) Winds ( mph kmh ) Pressure ( in mb ) Visibility ( mi km ) Precip ( " mm )
12:53 am 00:53 Clear 47 8.3 29 -1.7 50 50 SW 21 33 30.12 1020 10 16 0.00 0.00
1:53 am 01:53 Clear 47 8.3 29 -1.7 50 50 SW 23 37 30.11 1020 10 16 0.00 0.00
2:53 am 02:53 Clear 47 8.3 30 -1.1 52 52 SW 21 33 30.11 1020 10 16 0.00 0.00
3:53 am 03:53 Clear 48 8.9 30 -1.1 50 50 SW 20 31 30.08 1019 10 16 0.00 0.00
4:53 am 04:53 Clear 48 8.9 30 -1.1 50 50 SW 20 31 30.06 1018 10 16 0.00 0.00
5:53 am 05:53 Clear 50 10 31 -0.6 48 48 SW 23 37 30.06 1018 10 16 0.00 0.00
6:53 am 06:53 Clear 49 9.4 32 0 52 52 SSW 16 26 30.05 1018 10 16 0.00 0.00
7:53 am 07:53 Clear 47 8.3 33 0.6 59 59 SSW 16 26 30.04 1017 10 16 0.00 0.00
8:53 am 08:53 Sunny 50 10 34 1.1 54 54 SSW 21 33 30.01 1016 10 16 0.00 0.00
9:53 am 09:53 Sunny 54 12.2 35 1.7 49 49 SSW 16 26 29.95 1014 10 16 0.00 0.00
10:53 am 10:53 Sunny 60 15.6 38 3.3 44 44 SW 28 44 29.90 1013 10 16 0.00 0.00
11:53 am 11:53 Sunny 62 16.7 37 2.8 40 40 SW 35 56 29.86 1011 10 16 0.00 0.00
12:53 pm 12:53 Sunny 63 17.2 37 2.8 38 38 SW 32 52 29.82 1010 10 16 0.00 0.00
1:53 pm 13:53 Sunny 68 20 38 3.3 33 33 SW 29 46 29.74 1007 10 16 0.00 0.00
2:53 pm 14:53 Sunny 67 19.4 38 3.3 35 35 SW 32 52 29.71 1006 10 16 0.00 0.00
3:53 pm 15:53 Sunny 71 21.7 37 2.8 29 29 WSW 41 67 29.63 1003 10 16 0.00 0.00
4:53 pm 16:53 Sunny 68 20 36 2.2 31 31 WSW 26 43 29.63 1004 10 16 0.00 0.00
5:53 pm 17:53 Sunny 65 18.3 32 0 29 29 WSW 36 57 29.61 1003 10 16 0.00 0.00
6:53 pm 18:53 Clear 62 16.7 31 -0.6 31 31 WSW 32 52 29.60 1002 10 16 0.00 0.00
7:53 pm 19:53 Clear 58 14.4 28 -2.2 32 32 WSW 18 30 29.65 1004 10 16 0.00 0.00
8:53 pm 20:53 Mostly Clear 57 13.9 28 -2.2 33 33 W 14 22 29.68 1005 10 16 0.00 0.00
9:53 pm 21:53 Mostly Cloudy 56 13.3 29 -1.7 36 36 W 15 24 29.69 1005 10 16 0.00 0.00
10:24 pm 22:24 Cloudy 55 12.8 30 -1.1 38 38 N 26 43 29.65 1004 10 16 0.00 0.00
10:36 pm 22:36 Cloudy 45 7.2 31 -0.6 58 58 N 18 30 29.77 1008 10 16 0.00 0.00
10:53 pm 22:53 Cloudy 44 6.7 31 -0.6 60 60 N 18 30 29.79 1009 10 16 0.00 0.00
11:24 pm 23:24 Cloudy 42 5.6 32 0 68 68 N 28 44 29.88 1012 10 16 0.00 0.00
11:53 pm 23:53 Windy with Snow Likely 35 1.7 31 -0.6 85 85 N 22 35 29.91 1013 5 8 0.02 0.51

Powered by AerisWeather